Location: Elkol
(41.7238°N, 110.6124°W)
Time: 15:23:07
(UTC+00:00)

BlueWalker 3 - Pass Details

Date: 10 December 2022
Orbit: 499 x 517 km, 53.2° (Epoch: 01 February)

Event Time Altitude Azimuth Distance (km) Brightness Sun altitude
Rises 01:04:27 0° 310° (NW) 2,627 6.0 -13.1°
Reaches altitude 10° 01:06:44 10° 317° (NW) 1,735 5.0 -13.5°
Maximum altitude 01:10:31 45° 31° (NNE) 697 2.3 -14.2°
Enters shadow 01:12:25 25° 91° (E) 1,057 3.0 -14.5°
